Simultaneous Nadir Overpasses (SNOs) Predictions

Prediction of SNOs between METOP-B and NOAA-19 Satellite Orbit:

Table of predicted SNOs for the next 14.0 days since TLE Epoch: 11/2/2019
Index Date (METOP-B) Time (METOP-B) Lat,Lon (METOP-B) SZA (METOP-B ) Date (NOAA-19) Time (NOAA-19) Lat,Lon (NOAA-19) SZA (NOAA-19 ) Distance(km) Time Diff (sec)
1 11/03/2019 04:12:38 -79.60, -44.47 84.72 11/03/2019 04:11:30 -79.59, -44.45 84.75 1.33 68
2 11/03/2019 05:03:18 79.60, 122.92 95.30 11/03/2019 05:02:25 79.58, 122.90 95.26 2.91 53
3 11/03/2019 05:54:00 -79.59, -69.91 84.72 11/03/2019 05:53:31 -79.59, -70.03 84.73 2.48 29
4 11/03/2019 06:44:40 79.59, 97.48 95.31 11/03/2019 06:44:26 79.59, 97.32 95.29 3.27 14
5 11/03/2019 07:35:22 -79.57, -95.35 84.72 11/03/2019 07:35:31 -79.57, -95.32 84.71 0.78 9
6 11/03/2019 08:26:02 79.58, 72.04 95.31 11/03/2019 08:26:26 79.57, 72.03 95.30 1.61 24
7 11/03/2019 09:16:44 -79.56,-120.80 84.71 11/03/2019 09:17:32 -79.58,-120.89 84.69 2.88 48
8 11/03/2019 10:07:24 79.57, 46.59 95.32 11/03/2019 10:08:27 79.57, 46.45 95.33 2.84 63
9 11/14/2019 04:35:26 79.61, 129.96 98.47 11/14/2019 04:34:15 79.62, 129.95 98.45 1.20 71
10 11/14/2019 05:26:07 -79.62, -62.59 81.51 11/14/2019 05:25:19 -79.60, -62.59 81.55 2.79 48
11 11/14/2019 06:16:47 79.60, 104.52 98.47 11/14/2019 06:16:14 79.60, 104.66 98.47 2.88 33
12 11/14/2019 07:07:28 -79.61, -88.04 81.51 11/14/2019 07:07:19 -79.61, -88.17 81.53 2.64 9
13 11/14/2019 07:58:09 79.59, 79.07 98.47 11/14/2019 07:58:15 79.61, 79.08 98.49 2.48 6
14 11/14/2019 08:48:50 -79.60,-113.48 81.51 11/14/2019 08:49:19 -79.59,-113.46 81.51 1.53 29
15 11/14/2019 09:39:30 79.61, 53.91 98.51 11/14/2019 09:40:15 79.59, 53.79 98.50 3.02 45
16 11/14/2019 10:30:12 -79.59,-138.93 81.51 11/14/2019 10:31:20 -79.59,-139.04 81.49 2.37 68




NCC Satellite Simultaneous Nadir Overpasses (SNOs) Prediction Service
